Time,TemperatureF,DewpointF,PressureIn,WindDirection,WindDirectionDegrees,WindSpeedMPH,WindSpeedGustMPH,Humidity,HourlyPrecipIn,Conditions,Clouds,dailyrainin,SoftwareType,DateUTC
2013-02-19 00:06:00,-2.0,-8.2,29.80,North,0,3.7,-999.0,74,-99.99,,,0.00,Acu-Link.com,2013-02-19 06:06:00,
2013-02-19 00:21:00,-2.0,-8.2,29.80,ENE,67,2.7,-999.0,74,-99.99,,,0.00,Acu-Link.com,2013-02-19 06:21:00,
2013-02-19 00:36:00,-1.8,-8.0,29.81,SSW,202,2.2,-999.0,74,-99.99,,,0.00,Acu-Link.com,2013-02-19 06:36:00,
2013-02-19 00:51:00,-1.5,-7.7,29.81,South,180,2.7,-999.0,74,-99.99,,,0.00,Acu-Link.com,2013-02-19 06:51:00,
2013-02-19 01:07:00,-1.5,-7.7,29.82,NNW,337,4.7,-999.0,74,-99.99,,,0.00,Acu-Link.com,2013-02-19 07:07:00,
2013-02-19 01:22:00,-1.5,-7.7,29.82,NNE,22,3.2,-999.0,74,-99.99,,,0.00,Acu-Link.com,2013-02-19 07:22:00,
2013-02-19 01:37:00,-1.8,-8.0,29.83,West,270,2.7,-999.0,74,-99.99,,,0.00,Acu-Link.com,2013-02-19 07:37:00,
2013-02-19 01:52:00,-2.4,-8.6,29.83,NE,45,3.7,-999.0,74,-99.99,,,0.00,Acu-Link.com,2013-02-19 07:52:00,
2013-02-19 02:07:00,-2.2,-8.4,29.83,ENE,67,2.2,-999.0,74,-99.99,,,0.00,Acu-Link.com,2013-02-19 08:07:00,
2013-02-19 02:23:00,-2.4,-8.6,29.84,South,180,4.7,-999.0,74,-99.99,,,0.00,Acu-Link.com,2013-02-19 08:23:00,
2013-02-19 02:38:00,-2.4,-8.6,29.85,WNW,292,3.2,-999.0,74,-99.99,,,0.00,Acu-Link.com,2013-02-19 08:38:00,
2013-02-19 02:53:00,-2.7,-8.9,29.85,NE,45,2.7,-999.0,74,-99.99,,,0.00,Acu-Link.com,2013-02-19 08:53:00,
2013-02-19 03:17:00,-2.9,-9.1,29.86,NE,45,3.2,-999.0,74,-99.99,,,0.00,Acu-Link.com,2013-02-19 09:17:00,
2013-02-19 03:32:00,-3.5,-9.7,29.87,SW,225,2.7,-999.0,74,-99.99,,,0.00,Acu-Link.com,2013-02-19 09:32:00,
2013-02-19 03:47:00,-3.5,-9.7,29.87,North,0,2.7,-999.0,74,-99.99,,,0.00,Acu-Link.com,2013-02-19 09:47:00,
2013-02-19 04:02:00,-3.8,-10.0,29.87,ESE,112,3.2,-999.0,74,-99.99,,,0.00,Acu-Link.com,2013-02-19 10:02:00,
2013-02-19 04:17:00,-4.0,-10.2,29.88,NNE,22,4.2,-999.0,74,-99.99,,,0.00,Acu-Link.com,2013-02-19 10:17:00,
2013-02-19 04:33:00,-4.5,-10.6,29.89,North,0,3.2,-999.0,74,-99.99,,,0.00,Acu-Link.com,2013-02-19 10:33:00,
2013-02-19 04:48:00,-4.9,-11.0,29.89,SSW,202,3.2,-999.0,74,-99.99,,,0.00,Acu-Link.com,2013-02-19 10:48:00,
2013-02-19 05:03:00,-5.3,-11.4,29.90,NNE,22,3.7,-999.0,74,-99.99,,,0.00,Acu-Link.com,2013-02-19 11:03:00,
2013-02-19 05:18:00,-5.3,-11.4,29.90,WSW,247,3.2,-999.0,74,-99.99,,,0.00,Acu-Link.com,2013-02-19 11:18:00,
2013-02-19 05:33:00,-5.3,-11.4,29.91,SE,135,4.2,-999.0,74,-99.99,,,0.00,Acu-Link.com,2013-02-19 11:33:00,
2013-02-19 05:49:00,-5.4,-11.5,29.92,North,0,4.7,-999.0,74,-99.99,,,0.00,Acu-Link.com,2013-02-19 11:49:00,
2013-02-19 06:04:00,-6.2,-12.3,29.93,West,270,4.2,-999.0,74,-99.99,,,0.00,Acu-Link.com,2013-02-19 12:04:00,
2013-02-19 06:19:00,-6.7,-12.8,29.94,WNW,292,3.7,-999.0,74,-99.99,,,0.00,Acu-Link.com,2013-02-19 12:19:00,
2013-02-19 06:34:00,-7.4,-13.5,29.95,East,90,2.7,-999.0,74,-99.99,,,0.00,Acu-Link.com,2013-02-19 12:34:00,
2013-02-19 06:49:00,-8.5,-14.8,29.95,NNW,337,2.7,-999.0,73,-99.99,,,0.00,Acu-Link.com,2013-02-19 12:49:00,
2013-02-19 07:05:00,-8.9,-15.2,29.96,NNW,337,4.2,-999.0,73,-99.99,,,0.00,Acu-Link.com,2013-02-19 13:05:00,
2013-02-19 07:20:00,-9.2,-15.5,29.97,NNE,22,3.2,-999.0,73,-99.99,,,0.00,Acu-Link.com,2013-02-19 13:20:00,
2013-02-19 07:35:00,-9.4,-15.7,29.98,West,270,2.7,-999.0,73,-99.99,,,0.00,Acu-Link.com,2013-02-19 13:35:00,
2013-02-19 07:50:00,-9.6,-15.9,29.98,SSE,157,4.2,-999.0,73,-99.99,,,0.00,Acu-Link.com,2013-02-19 13:50:00,
2013-02-19 08:05:00,-9.2,-15.7,29.99,NNW,337,3.2,-999.0,72,-99.99,,,0.00,Acu-Link.com,2013-02-19 14:05:00,
2013-02-19 08:21:00,-8.0,-14.8,30.01,SW,225,3.2,-999.0,71,-99.99,,,0.00,Acu-Link.com,2013-02-19 14:21:00,
2013-02-19 08:36:00,-7.2,-14.6,30.01,NNE,22,2.2,-999.0,69,-99.99,,,0.00,Acu-Link.com,2013-02-19 14:36:00,
2013-02-19 08:51:00,-5.8,-13.6,30.01,NE,45,3.2,-999.0,68,-99.99,,,0.00,Acu-Link.com,2013-02-19 14:51:00,
2013-02-19 09:06:00,-4.4,-13.1,30.02,East,90,3.2,-999.0,65,-99.99,,,0.00,Acu-Link.com,2013-02-19 15:06:00,
2013-02-19 09:22:00,-4.4,-13.4,30.03,NW,315,3.7,-999.0,64,-99.99,,,0.00,Acu-Link.com,2013-02-19 15:22:00,
2013-02-19 09:37:00,-4.2,-12.9,30.03,North,0,2.7,-999.0,65,-99.99,,,0.00,Acu-Link.com,2013-02-19 15:37:00,
2013-02-19 09:52:00,-4.5,-13.5,30.03,SSE,157,3.7,-999.0,64,-99.99,,,0.00,Acu-Link.com,2013-02-19 15:52:00,
2013-02-19 10:07:00,-3.6,-12.7,30.03,NNE,22,2.2,-999.0,64,-99.99,,,0.00,Acu-Link.com,2013-02-19 16:07:00,
2013-02-19 10:22:00,-3.8,-12.9,30.02,East,90,4.2,-999.0,64,-99.99,,,0.00,Acu-Link.com,2013-02-19 16:22:00,
2013-02-19 10:38:00,-3.3,-11.8,30.03,North,0,7.3,-999.0,66,-99.99,,,0.00,Acu-Link.com,2013-02-19 16:38:00,
2013-02-19 10:53:00,-2.2,-11.0,30.04,ESE,112,4.2,-999.0,65,-99.99,,,0.00,Acu-Link.com,2013-02-19 16:53:00,
2013-02-19 11:08:00,-1.7,-10.6,30.04,NE,45,4.2,-999.0,65,-99.99,,,0.00,Acu-Link.com,2013-02-19 17:08:00,
2013-02-19 11:23:00,-1.5,-10.7,30.05,South,180,2.7,-999.0,64,-99.99,,,0.00,Acu-Link.com,2013-02-19 17:23:00,
2013-02-19 11:38:00,-1.3,-10.5,30.05,WNW,292,2.2,-999.0,64,-99.99,,,0.00,Acu-Link.com,2013-02-19 17:38:00,
2013-02-19 11:54:00,-1.7,-10.9,30.06,SSE,157,4.7,-999.0,64,-99.99,,,0.00,Acu-Link.com,2013-02-19 17:54:00,
2013-02-19 12:09:00,-1.1,-10.3,30.07,West,270,2.7,-999.0,64,-99.99,,,0.00,Acu-Link.com,2013-02-19 18:09:00,
2013-02-19 12:24:00,0.1,-9.5,30.07,NE,45,2.7,-999.0,63,-99.99,,,0.00,Acu-Link.com,2013-02-19 18:24:00,
2013-02-19 12:39:00,-1.5,-10.4,30.06,WNW,292,6.3,-999.0,65,-99.99,,,0.00,Acu-Link.com,2013-02-19 18:39:00,
2013-02-19 12:54:00,-0.8,-9.7,30.07,NNE,22,3.7,-999.0,65,-99.99,,,0.00,Acu-Link.com,2013-02-19 18:54:00,
2013-02-19 13:10:00,0.1,-8.8,30.07,WNW,292,4.2,-999.0,65,-99.99,,,0.00,Acu-Link.com,2013-02-19 19:10:00,
2013-02-19 13:25:00,0.3,-8.6,30.05,ENE,67,3.7,-999.0,65,-99.99,,,0.00,Acu-Link.com,2013-02-19 19:25:00,
2013-02-19 13:40:00,1.2,-8.1,30.06,South,180,2.7,-999.0,64,-99.99,,,0.00,Acu-Link.com,2013-02-19 19:40:00,
2013-02-19 13:55:00,1.9,-8.1,30.06,ESE,112,2.7,-999.0,62,-99.99,,,0.00,Acu-Link.com,2013-02-19 19:55:00,
2013-02-19 14:10:00,2.1,-7.9,30.05,ENE,67,2.7,-999.0,62,-99.99,,,0.00,Acu-Link.com,2013-02-19 20:10:00,
2013-02-19 14:26:00,1.4,-7.9,30.04,SE,135,3.2,-999.0,64,-99.99,,,0.00,Acu-Link.com,2013-02-19 20:26:00,
2013-02-19 14:41:00,1.6,-7.7,30.04,ESE,112,2.7,-999.0,64,-99.99,,,0.00,Acu-Link.com,2013-02-19 20:41:00,
2013-02-19 14:56:00,2.5,-7.5,30.04,SW,225,2.2,-999.0,62,-99.99,,,0.00,Acu-Link.com,2013-02-19 20:56:00,
2013-02-19 15:11:00,2.7,-7.3,30.08,North,0,2.2,-999.0,62,-99.99,,,0.00,Acu-Link.com,2013-02-19 21:11:00,
2013-02-19 15:27:00,1.6,-8.0,30.09,WNW,292,2.2,-999.0,63,-99.99,,,0.00,Acu-Link.com,2013-02-19 21:27:00,
2013-02-19 15:42:00,2.1,-7.6,30.11,North,0,2.2,-999.0,63,-99.99,,,0.00,Acu-Link.com,2013-02-19 21:42:00,
2013-02-19 15:57:00,1.6,-8.0,30.12,NE,45,2.2,-999.0,63,-99.99,,,0.00,Acu-Link.com,2013-02-19 21:57:00,
2013-02-19 16:12:00,0.0,-8.9,30.13,South,180,2.2,-999.0,65,-99.99,,,0.00,Acu-Link.com,2013-02-19 22:12:00,
2013-02-19 16:27:00,-1.3,-9.9,30.14,NNE,22,2.7,-999.0,66,-99.99,,,0.00,Acu-Link.com,2013-02-19 22:27:00,
2013-02-19 16:43:00,-2.2,-10.4,30.15,East,90,3.7,-999.0,67,-99.99,,,0.00,Acu-Link.com,2013-02-19 22:43:00,
2013-02-19 16:58:00,-3.1,-10.7,30.15,NNW,337,2.7,-999.0,69,-99.99,,,0.00,Acu-Link.com,2013-02-19 22:58:00,
2013-02-19 17:13:00,-3.8,-11.1,30.15,ESE,112,1.7,-999.0,70,-99.99,,,0.00,Acu-Link.com,2013-02-19 23:13:00,
2013-02-19 17:28:00,-4.4,-11.4,30.16,SSW,202,2.2,-999.0,71,-99.99,,,0.00,Acu-Link.com,2013-02-19 23:28:00,
2013-02-19 17:43:00,-4.9,-11.9,30.16,West,270,2.7,-999.0,71,-99.99,,,0.00,Acu-Link.com,2013-02-19 23:43:00,
2013-02-19 17:59:00,-5.6,-12.3,30.17,North,0,1.1,-999.0,72,-99.99,,,0.00,Acu-Link.com,2013-02-19 23:59:00,
2013-02-19 18:14:00,-6.0,-12.6,30.17,ESE,112,2.2,-999.0,72,-99.99,,,0.00,Acu-Link.com,2013-02-20 00:14:00,
2013-02-19 18:29:00,-6.5,-12.9,30.18,ESE,112,1.1,-999.0,73,-99.99,,,0.00,Acu-Link.com,2013-02-20 00:29:00,
2013-02-19 18:44:00,-7.1,-13.4,30.18,SW,225,2.2,-999.0,73,-99.99,,,0.00,Acu-Link.com,2013-02-20 00:44:00,
2013-02-19 18:59:00,-7.6,-13.9,30.19,West,270,1.7,-999.0,73,-99.99,,,0.00,Acu-Link.com,2013-02-20 00:59:00,
2013-02-19 19:15:00,-8.1,-14.1,30.19,NNW,337,1.7,-999.0,74,-99.99,,,0.00,Acu-Link.com,2013-02-20 01:15:00,
2013-02-19 19:30:00,-8.9,-14.9,30.19,West,270,2.2,-999.0,74,-99.99,,,0.00,Acu-Link.com,2013-02-20 01:30:00,
2013-02-19 19:45:00,-9.0,-14.7,30.20,WNW,292,1.1,-999.0,75,-99.99,,,0.00,Acu-Link.com,2013-02-20 01:45:00,
2013-02-19 20:00:00,-9.4,-15.1,30.20,NE,45,1.7,-999.0,75,-99.99,,,0.00,Acu-Link.com,2013-02-20 02:00:00,
2013-02-19 20:16:00,-9.8,-15.5,30.21,WSW,247,1.1,-999.0,75,-99.99,,,0.00,Acu-Link.com,2013-02-20 02:16:00,
2013-02-19 20:31:00,-10.1,-15.8,30.21,West,270,1.1,-999.0,75,-99.99,,,0.00,Acu-Link.com,2013-02-20 02:31:00,
2013-02-19 20:46:00,-10.3,-16.0,30.20,ESE,112,0.0,-999.0,75,-99.99,,,0.00,Acu-Link.com,2013-02-20 02:46:00,
2013-02-19 21:01:00,-10.3,-16.0,30.21,NNE,22,1.7,-999.0,75,-99.99,,,0.00,Acu-Link.com,2013-02-20 03:01:00,
2013-02-19 21:16:00,-10.5,-16.2,30.22,NW,315,0.0,-999.0,75,-99.99,,,0.00,Acu-Link.com,2013-02-20 03:16:00,
2013-02-19 21:32:00,-9.9,-15.4,30.21,SW,225,1.1,-999.0,76,-99.99,,,0.00,Acu-Link.com,2013-02-20 03:32:00,
2013-02-19 21:47:00,-9.6,-15.1,30.23,East,90,1.1,-999.0,76,-99.99,,,0.00,Acu-Link.com,2013-02-20 03:47:00,
2013-02-19 22:02:00,-8.9,-14.4,30.23,NNE,22,0.0,-999.0,76,-99.99,,,0.00,Acu-Link.com,2013-02-20 04:02:00,
2013-02-19 22:17:00,-9.4,-14.9,30.23,SSE,157,0.0,-999.0,76,-99.99,,,0.00,Acu-Link.com,2013-02-20 04:17:00,
2013-02-19 22:32:00,-9.6,-15.1,30.23,NE,45,0.0,-999.0,76,-99.99,,,0.00,Acu-Link.com,2013-02-20 04:32:00,
2013-02-19 22:48:00,-9.4,-14.9,30.23,East,90,1.1,-999.0,76,-99.99,,,0.00,Acu-Link.com,2013-02-20 04:48:00,
2013-02-19 23:03:00,-9.8,-15.3,30.25,NE,45,1.1,-999.0,76,-99.99,,,0.00,Acu-Link.com,2013-02-20 05:03:00,
2013-02-19 23:18:00,-9.9,-15.4,30.25,NNW,337,0.0,-999.0,76,-99.99,,,0.00,Acu-Link.com,2013-02-20 05:18:00,
2013-02-19 23:33:00,-10.3,-15.7,30.25,NW,315,0.0,-999.0,76,-99.99,,,0.00,Acu-Link.com,2013-02-20 05:33:00,
2013-02-19 23:48:00,-11.0,-16.4,30.26,East,90,0.0,-999.0,76,-99.99,,,0.00,Acu-Link.com,2013-02-20 05:48:00,